Location: Newark
(12.4436°N, 0.6167°W)
Time: 21:28:55
(UTC+00:00)

deb Explorer IX - Pass Details

Date: 09 December 2019
Orbit: 548 x 1101 km, 38.8° (Epoch: 17 January)

Event Time Altitude Azimuth Distance (km) Brightness Sun altitude
Rises 22:02:33 0° 324° (NW) 3,867 - -61.4°
Reaches altitude 10° 22:05:49 10° 336° (NNW) 2,939 - -62.1°
Maximum altitude 22:11:42 26° 31° (NNE) 2,001 - -63.4°
Drops below altitude 10° 22:17:30 10° 85° (E) 2,886 - -64.6°
Sets 22:20:39 0° 97° (E) 3,783 - -65.3°
